Location: Unspecified
(0.0000°N, 0.0000°E)
Time: 07:00:49
(UTC+00:00)

Hubble Space Telescope - Pass Details

Date: 21 June 2019
Orbit: 536 x 540 km, 28.5° (Epoch: 16 September)

Event Time Altitude Azimuth Distance (km) Brightness Sun altitude
Rises 18:30:58 0° 237° (WSW) 2,680 4.8 -6.7°
Reaches altitude 10° 18:33:14 10° 235° (SW) 1,788 3.9 -7.2°
Maximum altitude 18:37:22 76° 149° (SSE) 554 0.7 -8.1°
Drops below altitude 10° 18:41:29 10° 64° (ENE) 1,783 3.0 -9.1°
Enters shadow 18:43:36 - 62° (ENE) 2,609 3.9 -9.6°
